{"data":{"norad_id":48449,"intl_designator":"2021-040X","name":"STARLINK-2655","alt_names":[],"object_type":"PAYLOAD","status":"ACTIVE","operator":null,"country":"US","launch_date":"2021-05-09","launch_site_code":"AFETR","launch_vehicle":null,"mission":null,"orbit_class":"UNKNOWN","rcs_meters":null,"size_class":null,"mass_kg":null,"dimensions":null,"purposes":["comms"],"wikipedia_slug":null,"has_3d_model":false,"image_url":null,"decayed_at":null,"tle_current":{"epoch":"2026-05-25T01:42:15.710688Z","epoch_age_seconds":68947,"freshness":"FRESH","line1":"1 48449U 21040X   26145.07101517  .00000378  00000+0  23943-4 0  9998","line2":"2 48449  53.1579 182.8788 0001422  88.1595 271.9569 15.31693453278385","mean_motion":15.31693453,"eccentricity":0.0001422,"inclination_deg":53.1579,"raan_deg":182.8788,"arg_perigee_deg":88.1595,"mean_anomaly_deg":271.9569,"bstar":2.3943e-5,"rev_number":27838,"period_min":94.013589806733,"perigee_km":469.78559847754,"apogee_km":471.73342464543,"semimajor_km":6848.8965115615,"source":"CELESTRAK","updated_at":"2026-05-25T13:38:16.717489Z"}}}